Location: Ferchesar
(52.6477°N, 12.4298°E)
Time: 05:48:23
(UTC+02:00)

X-37B - Visible Passes

Search period start: 29 July 2021 00:00
Search period end: 08 August 2021 00:00
Orbit: 383 x 392 km, 45.0° (Epoch: 01 July)

Date Brightness Start Highest point End Pass type
(mag) Time Alt. Az. Time Alt. Az. Time Alt. Az.
04 Aug 3.0 04:16:05 10° S 04:17:22 12° SSE 04:18:40 10° SE visible
06 Aug 2.6 03:56:29 15° S 03:56:59 16° SSE 03:58:59 10° SE visible
07 Aug 2.2 04:32:54 13° SW 04:34:48 21° S 04:37:16 10° SE visible
